• In Hungary
  • List of Countries
  • For 7 days
  • Water Temperature
  • Satellite Maps
  • Weather Map
  • News
  • Weather Widgets
  • user-avatar
    Login

    Hourly Weather Verhnyaya Zaimka

    Today, 20 July, Friday

    Time Temperature Precipitation Wind Pressure Humidity
    00:00 +17°C° 0 mm 4 mps 752 mmHg 66%
    01:00 +16°C° 0 mm 3 mps 752 mmHg 67%
    02:00 +14°C° 0 mm 3 mps 752 mmHg 68%
    03:00 +14°C° 0 mm 3 mps 753 mmHg 69%
    04:00 +14°C° 0 mm 3 mps 753 mmHg 69%
    05:00 +14°C° 0 mm 4 mps 753 mmHg 68%
    06:00 +14°C° 0 mm 4 mps 753 mmHg 67%
    07:00 +15°C° 0 mm 4 mps 753 mmHg 59%
    08:00 +17°C° 0 mm 4 mps 754 mmHg 52%
    09:00 +19°C° 0 mm 4 mps 754 mmHg 45%
    10:00 +20°C° 0 mm 4 mps 754 mmHg 40%
    11:00 +20°C° 0 mm 4 mps 754 mmHg 36%
    12:00 +21°C° 0 mm 5 mps 754 mmHg 33%
    13:00 +21°C° 0 mm 5 mps 754 mmHg 31%
    14:00 +22°C° 0 mm 4 mps 754 mmHg 28%
    15:00 +22°C° 0 mm 4 mps 754 mmHg 26%
    16:00 +22°C° 0 mm 4 mps 754 mmHg 27%
    17:00 +21°C° 0 mm 4 mps 754 mmHg 27%
    18:00 +21°C° 0 mm 4 mps 754 mmHg 28%
    19:00 +19°C° 0 mm 3 mps 754 mmHg 34%
    20:00 +17°C° 0 mm 3 mps 754 mmHg 41%
    21:00 +14°C° 0 mm 2 mps 754 mmHg 48%
    22:00 +13°C° 0 mm 2 mps 754 mmHg 49%
    23:00 +12°C° 0 mm 2 mps 754 mmHg 49%

    Tomorrow, 21 July, Saturday

    Time Temperature Precipitation Wind Pressure Humidity
    00:00 +10°C° 0 mm 3 mps 755 mmHg 50%
    01:00 +10°C° 0 mm 3 mps 755 mmHg 52%
    02:00 +9°C° 0 mm 3 mps 755 mmHg 53%
    03:00 +8°C° 0 mm 3 mps 755 mmHg 54%
    04:00 +9°C° 0 mm 3 mps 755 mmHg 53%
    05:00 +10°C° 0 mm 3 mps 755 mmHg 53%
    06:00 +10°C° 0 mm 3 mps 755 mmHg 52%
    07:00 +12°C° 0 mm 4 mps 755 mmHg 48%
    08:00 +13°C° 0 mm 4 mps 755 mmHg 44%
    09:00 +15°C° 0 mm 5 mps 755 mmHg 39%
    10:00 +16°C° 0 mm 5 mps 755 mmHg 37%
    11:00 +18°C° 0 mm 4 mps 755 mmHg 35%
    12:00 +19°C° 0 mm 4 mps 755 mmHg 32%
    13:00 +20°C° 0 mm 4 mps 754 mmHg 32%
    14:00 +20°C° 0 mm 4 mps 754 mmHg 31%
    15:00 +21°C° 0 mm 4 mps 754 mmHg 31%
    16:00 +21°C° 0 mm 4 mps 754 mmHg 34%
    17:00 +20°C° 0 mm 4 mps 754 mmHg 38%
    18:00 +20°C° 0 mm 3 mps 753 mmHg 41%
    19:00 +19°C° 0 mm 3 mps 753 mmHg 42%
    20:00 +18°C° 0 mm 3 mps 753 mmHg 43%
    21:00 +17°C° 0 mm 4 mps 753 mmHg 44%
    22:00 +17°C° 0 mm 4 mps 753 mmHg 42%
    23:00 +17°C° 0 mm 4 mps 753 mmHg 40%

    Day after tomorrow, 22 July, Sunday

    Time Temperature Precipitation Wind Pressure Humidity
    00:00 +16°C° 0 mm 5 mps 753 mmHg 37%
    01:00 +15°C° 0 mm 5 mps 753 mmHg 40%
    02:00 +14°C° 0 mm 4 mps 753 mmHg 42%
    03:00 +14°C° 0 mm 4 mps 753 mmHg 45%
    04:00 +13°C° 0 mm 4 mps 753 mmHg 47%
    05:00 +13°C° 0 mm 4 mps 753 mmHg 50%
    06:00 +12°C° 0 mm 4 mps 753 mmHg 52%
    07:00 +14°C° 0 mm 5 mps 753 mmHg 46%
    08:00 +16°C° 0 mm 6 mps 753 mmHg 40%
    09:00 +19°C° 0 mm 6 mps 753 mmHg 35%
    10:00 +20°C° 0 mm 6 mps 753 mmHg 32%
    11:00 +21°C° 0 mm 6 mps 753 mmHg 30%
    12:00 +22°C° 0 mm 6 mps 752 mmHg 28%
    13:00 +23°C° 0 mm 6 mps 752 mmHg 27%
    14:00 +23°C° 0 mm 6 mps 752 mmHg 27%
    15:00 +23°C° 0 mm 6 mps 752 mmHg 26%
    16:00 +23°C° 0 mm 6 mps 752 mmHg 28%
    17:00 +22°C° 0 mm 5 mps 751 mmHg 31%
    18:00 +21°C° 0 mm 5 mps 751 mmHg 33%
    19:00 +20°C° 0 mm 4 mps 751 mmHg 35%
    20:00 +19°C° 0 mm 4 mps 751 mmHg 37%
    21:00 +18°C° 0 mm 4 mps 751 mmHg 39%
    22:00 +17°C° 0 mm 4 mps 750 mmHg 38%
    23:00 +16°C° 0 mm 5 mps 750 mmHg 37%

    23 July, Monday

    Time Temperature Precipitation Wind Pressure Humidity
    00:00 +16°C° 0 mm 5 mps 750 mmHg 35%
    01:00 +16°C° 0.2 mm 5 mps 749 mmHg 39%
    02:00 +15°C° 0.2 mm 5 mps 749 mmHg 42%
    03:00 +15°C° 0.2 mm 4 mps 749 mmHg 45%
    04:00 +14°C° 0.4 mm 5 mps 748 mmHg 47%
    05:00 +14°C° 0.4 mm 5 mps 748 mmHg 50%
    06:00 +14°C° 0.4 mm 5 mps 748 mmHg 52%
    07:00 +14°C° 0.2 mm 5 mps 748 mmHg 55%
    08:00 +13°C° 0.2 mm 5 mps 748 mmHg 57%
    09:00 +13°C° 0.2 mm 5 mps 749 mmHg 59%
    10:00 +14°C° 0.1 mm 5 mps 749 mmHg 61%
    11:00 +14°C° 0.1 mm 5 mps 749 mmHg 63%
    12:00 +14°C° 0.1 mm 5 mps 749 mmHg 64%
    13:00 +14°C° 0.2 mm 5 mps 749 mmHg 68%
    14:00 +14°C° 0.2 mm 4 mps 749 mmHg 71%
    15:00 +14°C° 0.2 mm 4 mps 749 mmHg 75%
    16:00 +13°C° 0.6 mm 4 mps 749 mmHg 78%
    17:00 +13°C° 0.6 mm 3 mps 749 mmHg 81%
    18:00 +12°C° 0.6 mm 3 mps 749 mmHg 84%
    19:00 +12°C° 1.6 mm 3 mps 749 mmHg 86%
    20:00 +12°C° 1.6 mm 3 mps 749 mmHg 88%
    21:00 +12°C° 1.6 mm 3 mps 749 mmHg 90%
    22:00 +12°C° 1.3 mm 3 mps 749 mmHg 91%
    23:00 +12°C° 1.3 mm 3 mps 749 mmHg 92%

    24 July, Tuesday

    Time Temperature Precipitation Wind Pressure Humidity
    00:00 +12°C° 1.3 mm 3 mps 749 mmHg 93%
    01:00 +11°C° 0.6 mm 3 mps 748 mmHg 94%
    02:00 +11°C° 0.6 mm 3 mps 748 mmHg 94%
    03:00 +11°C° 0.6 mm 3 mps 748 mmHg 95%
    04:00 +11°C° 0.2 mm 3 mps 748 mmHg 95%
    05:00 +11°C° 0.2 mm 3 mps 748 mmHg 94%
    06:00 +11°C° 0.2 mm 3 mps 748 mmHg 94%
    07:00 +13°C° 0 mm 3 mps 748 mmHg 89%
    08:00 +14°C° 0 mm 3 mps 749 mmHg 83%
    09:00 +16°C° 0 mm 3 mps 749 mmHg 78%
    10:00 +16°C° 0 mm 3 mps 749 mmHg 75%
    11:00 +17°C° 0 mm 3 mps 749 mmHg 72%
    12:00 +17°C° 0 mm 3 mps 749 mmHg 69%
    13:00 +17°C° 0.4 mm 3 mps 749 mmHg 73%
    14:00 +17°C° 0.4 mm 3 mps 749 mmHg 78%
    15:00 +16°C° 0.4 mm 2 mps 749 mmHg 82%
    16:00 +16°C° 0.8 mm 2 mps 749 mmHg 85%
    17:00 +15°C° 0.8 mm 2 mps 749 mmHg 88%
    18:00 +15°C° 0.8 mm 1 mps 749 mmHg 91%
    19:00 +15°C° 0.4 mm 2 mps 749 mmHg 91%
    20:00 +14°C° 0.4 mm 2 mps 748 mmHg 92%
    21:00 +14°C° 0.4 mm 2 mps 748 mmHg 92%
    22:00 +14°C° 0.1 mm 2 mps 748 mmHg 92%
    23:00 +14°C° 0.1 mm 2 mps 748 mmHg 91%

    25 July, Wednesday

    Time Temperature Precipitation Wind Pressure Humidity
    00:00 +15°C° 0.1 mm 2 mps 748 mmHg 91%
    01:00 +15°C° 0 mm 2 mps 748 mmHg 89%
    02:00 +15°C° 0 mm 1 mps 748 mmHg 88%
    03:00 +15°C° 0 mm 1 mps 748 mmHg 86%
    04:00 +15°C° 0.1 mm 1 mps 748 mmHg 87%
    05:00 +15°C° 0.1 mm 1 mps 748 mmHg 87%
    06:00 +15°C° 0.1 mm 1 mps 748 mmHg 88%
    07:00 +18°C° 0.1 mm 1 mps 748 mmHg 83%
    08:00 +19°C° 0.1 mm 1 mps 749 mmHg 78%
    09:00 +21°C° 0.1 mm 1 mps 749 mmHg 73%
    10:00 +22°C° 0 mm 1 mps 749 mmHg 69%
    11:00 +23°C° 0 mm 1 mps 749 mmHg 64%
    12:00 +24°C° 0 mm 1 mps 749 mmHg 60%
    13:00 +24°C° 0 mm 1 mps 750 mmHg 59%
    14:00 +25°C° 0 mm 2 mps 750 mmHg 58%
    15:00 +25°C° 0 mm 2 mps 750 mmHg 58%
    16:00 +25°C° 0 mm 2 mps 750 mmHg 60%
    17:00 +25°C° 0 mm 1 mps 750 mmHg 62%
    18:00 +25°C° 0 mm 1 mps 750 mmHg 64%
    19:00 +23°C° 0 mm 2 mps 750 mmHg 70%
    20:00 +21°C° 0 mm 2 mps 750 mmHg 76%
    21:00 +19°C° 0 mm 2 mps 750 mmHg 81%
    22:00 +19°C° 0 mm 2 mps 750 mmHg 82%
    23:00 +18°C° 0 mm 2 mps 750 mmHg 82%
    Show more